Weather Roundup
Issued by NWS

Home | Current Version | Previous Version | Text Only | Print | Product List | Glossary On
Versions: 1 2 3 4 5 6 7 8 9 10 11 12 13 14 15 16 17 18 19 20 21 22 23 24 25 26 27 28 29 30 31 32 33 34 35 36 37 38 39 40 41 42 43 44 45 46 47 48 49 50
300
NZUS93 KARX 061110
HRRWXR

CURRENT HOURLY OBSERVATIONS ACROSS
MUCH OF THE UPPER MISSISSIPPI VALLEY
NATIONAL WEATHER SERVICE LA CROSSE WI
500 AM CST SAT FEB 06 2016


...SOUTHEAST MINNESOTA...


CITY           SKY/WX    TMP DP  RH WIND       PRES   REMARKS
ROCHESTER      CLOUDY    26  23  88 W16       30.15S WCI  14
ROCHESTER/MAYO CLOUDY    28  26  92 W12G17    30.16S WCI  18
WINONA         CLOUDY    30  27  86 W3        30.19S
AUSTIN         CLOUDY    27  25  93 W9        30.17S FOG     WCI  17
ALBERT LEA     CLOUDY    27  25  93 SW5       30.16F FOG     WCI  21
DODGE CENTER   CLOUDY    25  23  93 W12       30.15S WCI  14
PRESTON        CLOUDY    25  24  95 W10       30.17S FOG     WCI  15
OWATONNA       CLOUDY    25  21  86 SW9       30.15F WCI  15
FARIBAULT      CLOUDY    25  21  86 SW8       30.16F WCI  16
$$

...ELSEWHERE IN MINNESOTA...


CITY           SKY/WX    TMP DP  RH WIND       PRES   REMARKS
MINNEAPOLIS    CLOUDY    25  21  85 SW5       30.14F WCI  19
INTNL FALLS    CLOUDY    18  14  84 SW3       29.97F
DULUTH         PTCLDY    17  14  88 W8        30.02S WCI   7
RED WING       CLOUDY    28  21  74 W6        30.15F WCI  22
REDWOOD FALLS  PTCLDY    17  15  92 S5        30.13S WCI  10
MANKATO        CLOUDY    25  21  86 S7        30.15F WCI  17
WORTHINGTON    CLOUDY    21  19  93 SW9       30.15S VSB 1/2 WCI  11
FAIRMONT       CLOUDY    23  19  86 SW9       30.15F VSB 3/4 WCI  13
$$

...SOUTHWEST WISCONSIN...


CITY           SKY/WX    TMP DP  RH WIND       PRES   REMARKS
LA CROSSE      CLOUDY    28  23  81 W7        30.20S WCI  21
PRAIRIE DU CHI CLOUDY    29  22  75 SW6       30.22S WCI  23
BOSCOBEL       CLOUDY    29  23  78 SW5       30.22S WCI  24
LONE ROCK      CLOUDY    27  20  75 SW3       30.22S
PLATTEVILLE    CLOUDY    27  24  88 SW9       30.20F WCI  17
FORT MC COY    CLOUDY    26  24  92 W5        30.19S FOG     WCI  21
CAMP DOUGLAS   CLOUDY    26  26 100 W12       30.17S WCI  16
VIROQUA        CLOUDY    26  24  93 SW10      30.17S WCI  16
WIS DELLS      CLOUDY    27  19  74 SW9       30.18S WCI  17
$$

...ELSEWHERE IN WISCONSIN...


CITY           SKY/WX    TMP DP  RH WIND       PRES   REMARKS
MILWAUKEE      CLOUDY    28  21  75 SW9       30.23F WCI  19
MADISON        CLOUDY    27  20  75 SW6       30.20S WCI  20
GREEN BAY      LGT SNOW  25  20  81 SW10      30.15F WCI  15
EAU CLAIRE     CLOUDY    25  21  85 SW7       30.13F WCI  17
BLACK RVR FLS  CLOUDY    26  26 100 SW3       30.17S FOG
MEDFORD        CLOUDY    22  21  98 SW7       30.08S FOG     WCI  13
WAUSAU         CLOUDY    23  20  88 SW9       30.10F FOG     WCI  13
WIS RAPIDS     CLOUDY    25  20  81 W9        30.17S WCI  15
MARSHFIELD     CLOUDY    23  20  88 SW9       30.11F FOG     WCI  13
RICE LAKE      CLOUDY    24  22  91 SW3       30.12S FOG
$$

...NORTHEAST IOWA...


CITY           SKY/WX    TMP DP  RH WIND       PRES   REMARKS
WATERLOO       CLOUDY    29  26  89 SW10      30.21F WCI  20
DUBUQUE        CLOUDY    26  22  84 S7        30.21F WCI  18
DECORAH        CLOUDY    27  27 100 W7        30.18S FOG     WCI  19
MASON CITY     CLOUDY    27  25  92 W7        30.20S FOG     WCI  19
CHARLES CITY   CLOUDY    28  28 100 SW8       30.20S FOG     WCI  20
OELWEIN        CLOUDY    28  28 100 SW9       30.21S WCI  20
$$

...ELSEWHERE IN IOWA...


CITY           SKY/WX    TMP DP  RH WIND       PRES   REMARKS
DES MOINES     CLOUDY    30  26  85 SW3       30.23F
IOWA CITY      CLOUDY    28  23  81 CALM      30.27S
FORT DODGE     CLOUDY    28  25  86 W7        30.22R WCI  21
MARSHALLTOWN   CLOUDY    29  27  92 W7        30.22R WCI  22
CEDAR RAPIDS   CLOUDY    28  25  88 S3        30.23S
$$

...NORTHERN ILLINOIS...


CITY           SKY/WX    TMP DP  RH WIND       PRES   REMARKS
CHICAGO-OHARE  CLOUDY    27  22  81 SW6       30.27S WCI  20
CHICAGO-MIDWAY CLOUDY    28  21  75 SW6       30.29S WCI  22
MOLINE         CLOUDY    30  22  72 SW3       30.27R
ROCKFORD       CLEAR     26  21  81 SW5       30.28R WCI  20
PEORIA         CLOUDY    27  23  85 CALM      30.30R
$$

NOTE: "FAIR" INDICATES FEW OR NO CLOUDS BELOW 12,000 FEET WITH NO
SIGNIFICANT WEATHER AND/OR OBSTRUCTIONS TO VISIBILITY. WIND
SPEEDS ARE IN MILES-PER-HOUR.




USA.gov is the U.S. government's official web portal to all federal, state and local government web resources and services.